Notices

What's New in latest Release from April 7th, 2021:

- Updated Glossary, including Speed of Maximum Gust, and Total Hourly Precipitation

- Updated national and regional climate services offices contacts and prices information

- Addition of station inventory lists for 1981-2010, 1971-2000, and 1961-1990 Normals.

If you haven't already, please take our survey and provide feedback about our website: https://eccc.sondage-survey.ca/f/LanguageSelection.aspx?s=442ca660-fcf1-47c0-95a9-59707d6fd709

Hourly Data Report for January 11, 2021

OTTAWA INTL A
ONTARIO
Current Station Operator: NAVCAN

45°19'00.000" N
75°40'00.000" W
114.90 m
6106001
71628
YOW

Download Data

Hourly Data (January 2021)
Hourly Data Report for January 11, 2021
TIME
LST
Temp Definition
°C
Dew Point Definition
°C
Rel Hum Definition
%
Precip. Amount Definition
mm

Wind Dir Definition
10's deg

Wind Spd Definition
km/h
Visibility Definition
km
Stn Press Definition
kPa
Hmdx Definition


Wind Chill Definition


Weather Definition


00:00 -7.1 -8.5 90   18 16 24.1 101.06   -13 LegendNANA
01:00 -6.2 -8.0 87   36 2 24.1 101.06   -7 Cloudy
02:00 -5.7 -7.4 88   14 5 24.1 101.08   -8 LegendNANA
03:00 -5.6 -7.2 88   7 5 24.1 101.07   -8 LegendNANA
04:00 -5.7 -7.2 89   5 8 24.1 101.03   -9 Cloudy
05:00 -6.0 -7.3 90   5 8 24.1 101.01   -10 LegendNANA
06:00 -5.6 -7.1 90   2 7 24.1 101.03   -9 LegendNANA
07:00 -5.4 -6.9 89   11 9 24.1 100.99   -9 Cloudy
08:00 -5.1 -6.6 89   6 5 16.1 100.96   -7 LegendNANA
09:00 -4.7 -6.3 89   7 9 24.1 100.95   -9 LegendNANA
10:00 -4.0 -5.7 88   4 7 24.1 100.93   -7 Cloudy
11:00 -1.7 -4.1 84   36 2 24.1 100.86   -2 LegendNANA
12:00 0.8 -4.4 68   23 17 24.1 100.73     LegendNANA
13:00 1.1 -4.0 68   22 16 24.1 100.61     Mostly Cloudy
14:00 0.6 -3.7 73   21 17 24.1 100.58     LegendNANA
15:00 0.3 -2.1 84   19 14 12.9 100.55     Snow
16:00 0.2 -1.4 89   17 10 12.9 100.54     Snow
17:00 -0.1 -0.9 94   16 8 16.1 100.48   -3 Snow
18:00 0.1 -0.8 94   18 10 24.1 100.46     LegendNANA
19:00 0.3 -0.9 92   20 14 11.3 100.44     Cloudy
20:00 0.2 -1.1 91   18 13 11.3 100.38     LegendNANA
21:00 0.1 -0.8 93   19 12 9.7 100.36     Snow Showers
22:00 0.1 -0.8 94   18 12 8.1 100.32     Snow Showers
23:00 0.0 -2.6 83   26 28 12.9 100.32   -6 Snow Showers

Notes on Data Quality.

Legend

  • E = Estimated
  • M = Missing
  • NA = Not Available*
  • [empty] = Indicates an unobserved value
Date modified: